HST
1 20580U 90037B   24114.92367276  .00010720  00000-0  51932-3 0  9991
2 20580  28.4696 348.4795 0002726 163.2208 196.8475 15.16919875668788
ISS (ZARYA)
1 25544U 98067A   24115.40831550  .00041167  00000-0  70484-3 0  9994
2 25544  51.6414 222.0652 0004739  98.4953 341.4825 15.50810604450201
CXO
1 25867U 99040B   24117.61982652  .00000975  00000-0  00000-0 0  9995
2 25867  40.0198 158.9019 8934830 292.7487 359.9501  0.37814100 14369